Regional Weather Roundup
Issued by NWS San Angelo, TX

Home | Current Version | Previous Version | Text Only | Print | Product List | Glossary On
Versions: 1 2 3 4 5 6 7 8 9 10 11 12 13 14 15 16 17 18 19 20 21 22 23 24 25 26 27 28 29 30 31 32 33 34 35 36 37 38 39 40 41 42 43 44 45 46 47 48 49 50
000
ASUS44 KSJT 251810
RWRSJT
WEST CENTRAL TEXAS REGIONAL WEATHER ROUNDUP
NATIONAL WEATHER SERVICE SAN ANGELO TX
100 PM CDT SAT APR 25 2015

NOTE: "FAIR" INDICATES FEW OR NO CLOUDS BELOW 12,000 FEET WITH NO
SIGNIFICANT WEATHER AND/OR OBSTRUCTIONS TO VISIBILITY.

TXZ049-054-064>066-071>073-076>078-098-099-113-114-127-128-139-140-
154-155-168>170-251900
...LOCATIONS ACROSS WEST CENTRAL TEXAS...

CITY           SKY/WX    TMP DP  RH WIND       PRES   REMARKS
SAN ANGELO     SUNNY     83  36  18 W16G24    29.84F
ABILENE        SUNNY     81  43  26 W13G22    29.80F
DYESS AFB      SUNNY     79  46  31 W13G21    29.79F
JUNCTION       SUNNY     85  33  15 W14G23    29.84F
SWEETWATER     SUNNY     76  44  31 SW16G25   29.86F
BROWNWOOD      SUNNY     79  48  34 W12       29.81F
COLEMAN        CLEAR     79  48  34 W10       29.83F
SONORA         SUNNY     82  34  17 W8G16     29.91F
OZONA          FAIR      82  32  16 W14G22    29.90F
BRADY          NOT AVBL
$$

TEXAS PANHANDLE/OKLAHOMA PANHANDLE

CITY           SKY/WX    TMP DP  RH WIND       PRES   REMARKS
AMARILLO       SUNNY     74  27  17 SW9       29.76F
BORGER         SUNNY     77  24  14 W9        29.73F
CANADIAN       SUNNY     77  36  22 NW5       29.70S
DALHART        SUNNY     74  25  16 VRB5      29.77F
DUMAS          CLEAR     76  28  17 SW12      29.76F
GUYMON         NOT AVBL
HEREFORD       CLEAR     76  32  20 MISG      29.79F
PAMPA          CLEAR     75  28  17 CALM      29.75F
PERRYTON       SUNNY     76  34  21 W8        29.71F
$$

SOUTHERN PANHANDLE/SOUTH PLAINS/ROLLING PLAINS

CITY           SKY/WX    TMP DP  RH WIND       PRES   REMARKS
LUBBOCK        SUNNY     77  34  21 W18G25    29.81F
SNYDER         SUNNY     76  41  28 W21G26    29.84S
CHILDRESS      SUNNY     80  33  18 VRB7      29.72F
SEMINOLE       CLEAR     75  31  19 W16G28    29.89F
$$

PERMIAN BASIN

CITY           SKY/WX    TMP DP  RH WIND       PRES   REMARKS
MIDLAND        SUNNY     78  33  19 W17G28    29.87F
ODESSA         SUNNY     78  30  17 NW16G23   29.88F
WINK           SUNNY     80  21  11 W22G30    29.87F
$$

FAR WEST/SOUTHWEST MOUNTAINS/TRANS PECOS

CITY           SKY/WX    TMP DP  RH WIND       PRES   REMARKS
ALPINE         CLEAR     73  29  19 W20       30.05F
DRYDEN           N/A     84  27  12 SW14G21   29.87F
EL PASO        MOSUNNY   72  23  16 SW17G28   29.95F
FORT STOCKTON  SUNNY     78  30  17 NW10G17   29.92F
GUADALUPE PASS SUNNY     67  24  19 SW39G52   29.95F
MARFA          SUNNY     70  27  19 SW15G22   30.04F
PECOS          CLEAR     79  31  17 W14G21    29.89F
$$

DALLAS/FORT WORTH METROPLEX

CITY           SKY/WX    TMP DP  RH WIND       PRES   REMARKS
DFW AIRPORT    SUNNY     83  50  31 W15       29.70F
FTW MEACHAM    SUNNY     83  52  34 W14       29.71F
DAL-EXECUTIVE  SUNNY     82  51  34 W13       29.71F
GRAND PRAIRIE  NOT AVBL
ADDISON        SUNNY     82  48  30 SW7G16    29.71
MESQUITE       CLEAR     82  48  30 SW9       29.71
LANCASTER      CLEAR     80  52  37 W10       29.72F
$$

NORTH CENTRAL TEXAS

CITY           SKY/WX    TMP DP  RH WIND       PRES   REMARKS
SHRMAN/DENISON CLEAR     78  59  51 W8        29.70F
GAINESVILLE    SUNNY     77  51  40 W9        29.72S
BRIDGEPORT     CLEAR     80  53  38 SW12      29.73F
DENTON         SUNNY     79  56  45 W10       29.69F
WAXAHACHIE     CLEAR     81  55  40 CALM      29.73F
GRANBURY         N/A     83  51  32 W10       29.75F
$$

WESTERN NORTH TEXAS

CITY           SKY/WX    TMP DP  RH WIND       PRES   REMARKS
WICHITA FALLS  SUNNY     77  50  38 SW12      29.70F
VERNON         CLEAR     80  36  20 W7        29.71F
BRECKENRIDGE   CLEAR     85  41  21 W14G22    29.75F HAZE
COMANCHE       SUNNY     79  53  40 W10G17    29.80F
$$

CENTRAL AND SOUTH CENTRAL TEXAS

CITY           SKY/WX    TMP DP  RH WIND       PRES   REMARKS
AUSTIN/BERGSTM MOSUNNY   89  54  30 W9        29.76F
WACO           SUNNY     85  53  33 W10       29.74F
HILLSBORO      CLEAR     83  50  32 W10       29.74F
TEMPLE         SUNNY     86  50  28 W13       29.75F
KILLEEN-GRAY   SUNNY     84  47  27 W16       29.76F
FORT HOOD      SUNNY     85  44  23 W12G20    29.76F
GEORGETOWN     SUNNY     88  50  27 W10       29.77F
LAGO VISTA     FAIR      86  43  22 W10G17    29.81S
SAN MARCOS     SUNNY     88  55  33 NW9       29.79F
NEW BRAUNFELS  SUNNY     87  57  35 NW12      29.77F
RANDOLPH AFB   MOSUNNY   84  59  41 NW7       29.79F
SAN ANTONIO    MOSUNNY   87  57  35 N10       29.80F
STINSON        SUNNY     87  55  33 NW7       29.77F
PLEASANTON     NOT AVBL
LA GRANGE      SUNNY     84  70  63 W5        29.75F
GIDDINGS       CLEAR     83  63  49 CALM      29.80F
$$

EAST TEXAS

CITY           SKY/WX    TMP DP  RH WIND       PRES   REMARKS
PARIS          SUNNY     79  55  44 MISG      29.68F
CLARKSVILLE    NOT AVBL
TYLER          SUNNY     84  60  44 W10       29.71S
LONGVIEW       SUNNY     85  61  44 W12       29.69S
PALESTINE      CLEAR     85  67  54 W10       29.73F
NACOGDOCHES    MOSUNNY   82  70  65 W8        29.72F
$$

TEXAS HILL COUNTRY AND EDWARDS PLATEAU

CITY           SKY/WX    TMP DP  RH WIND       PRES   REMARKS
LLANO          PTCLDY    84  45  24 NW14      29.84S
HORSESHOE BAY  FAIR      85  49  28 NW10      29.81F
KERRVILLE      SUNNY     84  41  22 NW10G16   29.84F
FREDERICKSBRG  SUNNY     82  40  22 W14G20    29.84F
ROCKSPRINGS    CLEAR     82  37  20 NW14      29.90F
HONDO          SUNNY     85  55  35 N6          N/A
UVALDE         CLEAR     83  60  45 N5        29.83F
DEL RIO        SUNNY     85  46  25 NW9G18    29.83F
$$

SOUTHEAST TEXAS

CITY           SKY/WX    TMP DP  RH WIND       PRES   REMARKS
COLLEGE STN    SUNNY     82  70  66 VRB6      29.75F
CALDWELL       CLEAR     84  61  45 W5        29.78F
CROCKETT       NOT AVBL
BRENHAM        SUNNY     82  71  69 CALM      29.77S
HUNTSVILLE     SUNNY     82  69  64 SW9       29.74F
CONROE         SUNNY     80  66  62 W7        29.75F
HOUSTON BUSH   MOSUNNY   81  66  60 VRB6      29.75F
HOUSTON HOBBY  PTSUNNY   77  69  76 S7        29.75F
PERLAND        SUNNY     78  67  68 S6        29.78F
WHARTON        CLEAR     79  71  75 S9        29.79S
$$

THE UPPER TEXAS COAST

CITY           SKY/WX    TMP DP  RH WIND       PRES   REMARKS
ORANGE         CLOUDY    72  66  81 S7        29.77R
PORT ARTHUR    CLOUDY    72  69  90 S12       29.76R
GALVESTON      PTSUNNY   74  67  78 SE12      29.79F
ANGLETON       PTSUNNY   70  68  93 SE14      29.77F
BAY CITY       CLOUDY    73  70  90 S6        29.80R
$$

TEXAS COASTAL BEND, RIO GRANDE PLAINS DEEP SOUTH TEXAS

CITY           SKY/WX    TMP DP  RH WIND       PRES   REMARKS
VICTORIA       SUNNY     79  72  79 S9        29.80S
BEEVILLE       FAIR      85  69  58 N3        29.79F
ROCKPORT       PTSUNNY   77  70  79 E14       29.79F
PORT ARANSAS   CLOUDY    73  70  92 E17G23    29.80F
PORT LAVACA    CLEAR     76  69  78 SE12      29.80F
CORPUS CHRISTI CLOUDY    78  73  84 E14       29.79F
KINGSVILLE NAS CLOUDY    83  78  85 E7        29.78F
COTULLA        MOSUNNY   87  58  37 N9        29.81F
LAREDO         MOSUNNY   87  69  54 N9        29.82F
BROWNSVILLE    MOSUNNY   91  75  59 S6        29.74F
PORT ISABEL    PTSUNNY   91  74  57 NW5       29.74F HAZE
HEBBRONVILLE     N/A     85  71  63 N8        29.81F
MCALLEN        CLOUDY    86  78  77 N13       29.77F HAZE
WESLACO        PTSUNNY   86  75  69 N3        29.76F
FALFURRIAS     PTCLDY    85  76  74 NE8       29.78F
EDINBURG       CLOUDY    83  76  78 N8        29.78S HAZE
$$


USA.gov is the U.S. government's official web portal to all federal, state and local government web resources and services.